Stations météo

Publicité
Socoa, France (7600): Température de l'air & dewpoint: 15.10.2017 19:00:00 - 21.10.2017 19:00:00 (CEST)Socoa, France (7600): Vitesse du vent & gusts: 15.10.2017 19:00:00 - 21.10.2017 19:00:00 (CEST)Socoa, France (7600): Direction du vent: 15.10.2017 19:00:00 - 21.10.2017 19:00:00 (CEST)Socoa, France (7600): reduced air pressure: 15.10.2017 19:00:00 - 21.10.2017 19:00:00 (CEST)Socoa, France (7600): visibility: 15.10.2017 19:00:00 - 21.10.2017 19:00:00 (CEST)Socoa, France (7600): Quantités de précipitations: 15.10.2017 19:00:00 - 21.10.2017 19:00:00 (CEST)
Date & Time tt [°C] td [°C] ff [km/h] ff [knt] fx [km/h] fx [knt] dd ppp [hPa] vv [km] rr [mm]
21.10.2017 19:00:00 17,2 10,6 32 17 45 25 W 1026,3 - 0,0
21.10.2017 18:00:00 17,3 11,8 36 19 50 27 WNW 1026,0 - 0,4
21.10.2017 17:00:00 16,9 11,6 40 22 65 35 WNW 1025,6 - 0,0
21.10.2017 16:00:00 17,3 12,2 41 22 51 27 WNW 1025,0 - 1,6
21.10.2017 15:00:00 17,9 12,1 12 7 33 18 WSW 1024,8 - 0,0
21.10.2017 14:00:00 17,4 11,7 24 13 41 22 WSW 1024,7 - 0,0
21.10.2017 13:00:00 16,5 12,5 14 8 30 16 SW 1025,1 - 0,0
21.10.2017 12:00:00 15,9 13,4 18 10 32 17 SSW 1025,0 15 0,0
21.10.2017 11:00:00 14,6 13,1 16 9 59 32 S 1024,6 - 0,2
21.10.2017 10:00:00 15,6 14,6 42 23 57 31 WNW 1023,9 - 1,4
21.10.2017 09:00:00 16,7 13,8 33 18 59 32 W 1022,7 - 1,5
21.10.2017 08:00:00 16,9 15,2 35 19 50 27 W 1022,1 18 3,0
21.10.2017 07:00:00 17,7 15,7 31 17 44 24 W 1021,4 - 0,6
21.10.2017 06:00:00 18,9 15,8 35 19 71 38 W 1020,6 - 0,0
21.10.2017 05:00:00 19,3 17,1 54 29 76 41 W 1019,2 20 0,0
21.10.2017 04:00:00 21,5 11,2 29 16 47 25 S 1017,0 - 0,0
21.10.2017 03:00:00 21,9 11,3 30 16 48 26 S 1016,3 - 0,0
21.10.2017 02:00:00 21,6 11,0 31 17 50 27 S 1016,2 - 0,0
21.10.2017 01:00:00 21,4 11,1 32 17 58 31 S 1015,9 - 0,0
21.10.2017 00:00:00 21,7 11,1 32 18 54 29 S 1016,1 - 0,0
20.10.2017 23:00:00 21,3 11,3 34 18 49 26 S 1016,3 20 0,0
20.10.2017 22:00:00 21,4 11,4 24 13 40 21 S 1016,6 - 0,0
20.10.2017 21:00:00 21,2 12,1 22 12 34 18 S 1016,5 - 0,0
20.10.2017 20:00:00 19,3 14,1 11 6 18 10 SSE 1016,7 15 0,0
20.10.2017 19:00:00 20,9 15,9 11 6 19 11 ESE 1016,2 - 0,0
20.10.2017 18:00:00 21,4 17,6 12 7 20 11 NE 1016,5 - 0,0
20.10.2017 17:00:00 22,3 17,7 12 7 22 12 NNE 1016,9 20 0,0
20.10.2017 16:00:00 20,6 16,8 14 8 22 12 NNE 1016,9 - 0,0
20.10.2017 15:00:00 21,2 15,9 17 9 20 11 NNE 1017,0 - 0,0
20.10.2017 14:00:00 22,2 14,6 7 4 14 7 NE 1017,4 - 0,0
20.10.2017 13:00:00 22,2 12,4 5 3 14 8 E 1018,1 - 0,0
20.10.2017 12:00:00 18,8 12,1 9 5 16 8 S 1018,3 - 0,0
20.10.2017 11:00:00 17,4 12,7 5 3 13 7 SE 1017,9 12 0,0
20.10.2017 10:00:00 16,4 11,5 12 7 16 9 S 1017,9 - 0,0
20.10.2017 09:00:00 15,6 10,8 16 9 18 10 S 1017,3 - 0,0
20.10.2017 08:00:00 15,0 10,6 10 6 17 9 S 1016,6 - 0,0
20.10.2017 07:00:00 14,4 10,4 11 6 17 9 S 1016,1 - 0,0
20.10.2017 06:00:00 14,6 10,2 13 7 16 9 S 1015,7 - 0,0
20.10.2017 05:00:00 14,8 10,4 10 5 16 9 S 1015,5 - 0,0
20.10.2017 04:00:00 14,9 10,1 13 7 17 9 SSW 1015,1 - 0,0
20.10.2017 03:00:00 14,6 11,0 9 5 19 11 S 1014,8 - 0,0
20.10.2017 02:00:00 14,9 10,5 6 3 19 11 SSW 1014,3 - 0,0
20.10.2017 01:00:00 15,2 11,0 18 10 23 12 S 1013,7 - 0,0
20.10.2017 00:00:00 15,4 12,0 11 6 23 12 S 1013,5 - 0,0
19.10.2017 23:00:00 15,3 12,8 16 9 21 12 S 1013,2 20 0,0
19.10.2017 22:00:00 14,7 13,1 14 7 18 10 S 1012,8 - 0,0
19.10.2017 21:00:00 15,3 12,6 3 1 25 13 S 1012,6 - 0,0
19.10.2017 20:00:00 16,2 12,7 6 4 16 9 SE 1012,6 - 0,0
19.10.2017 19:00:00 17,7 12,4 14 8 19 11 E 1011,8 - 0,0
19.10.2017 18:00:00 19,2 12,0 9 5 14 8 N 1011,9 - 0,0
19.10.2017 17:00:00 19,7 12,5 10 5 17 9 NNE 1011,5 20 0,0
19.10.2017 16:00:00 18,5 12,5 10 5 16 8 N 1011,3 - 0,0
19.10.2017 15:00:00 20,2 12,7 10 5 16 8 NNW 1011,5 - 0,0
19.10.2017 14:00:00 20,2 12,9 11 6 18 10 NW 1012,1 - 0,0
19.10.2017 13:00:00 18,9 12,4 15 8 21 12 WNW 1012,7 - 0,0
19.10.2017 12:00:00 18,9 11,9 13 7 19 10 W 1012,4 - 0,0
19.10.2017 11:00:00 18,2 12,0 11 6 21 11 SSW 1012,3 15 0,0
19.10.2017 10:00:00 15,6 12,7 11 6 34 18 SSW 1011,9 - 0,0
19.10.2017 09:00:00 14,3 11,6 22 12 34 19 SW 1011,3 - 0,0
19.10.2017 08:00:00 14,1 11,8 16 9 26 14 SW 1011,7 - 0,0
19.10.2017 07:00:00 14,5 12,4 16 9 26 14 SW 1011,4 - 0,0
19.10.2017 06:00:00 14,7 12,2 14 8 29 16 SW 1011,1 - 0,0
19.10.2017 05:00:00 14,7 12,2 20 11 29 16 SW 1011,0 15 0,0
19.10.2017 04:00:00 14,5 12,7 17 9 24 13 SW 1011,1 - 0,0
19.10.2017 03:00:00 14,4 13,1 16 8 27 14 SSW 1011,2 - 0,0
19.10.2017 02:00:00 14,4 13,4 18 10 32 17 SW 1011,1 - 0,2
19.10.2017 01:00:00 14,6 13,6 21 12 31 17 SW 1011,0 - 0,2
19.10.2017 00:00:00 14,7 13,6 19 10 33 18 SW 1010,9 - 0,0
18.10.2017 23:00:00 14,8 13,7 20 11 30 16 SW 1010,6 10 0,0
18.10.2017 22:00:00 14,5 13,5 16 9 21 12 SSW 1010,4 - 0,2
18.10.2017 21:00:00 14,5 13,7 10 5 12 6 S 1010,3 - 0,0
18.10.2017 20:00:00 14,6 13,8 7 4 12 6 S 1010,1 15 0,2
18.10.2017 19:00:00 14,8 13,8 10 5 15 8 SSW 1010,0 - 0,2
18.10.2017 18:00:00 15,0 14,0 8 5 22 12 S 1010,3 - 0,0
18.10.2017 17:00:00 15,1 14,0 15 8 45 25 W 1009,9 10 1,7
18.10.2017 16:00:00 15,8 14,3 33 18 63 34 W 1010,0 - 0,6
18.10.2017 15:00:00 17,6 15,9 35 19 55 30 W 1009,0 - 2,4
18.10.2017 14:00:00 21,0 16,0 10 6 29 16 E 1008,5 - 0,0
18.10.2017 13:00:00 19,3 16,5 18 10 29 16 NE 1009,7 - 0,0
18.10.2017 12:00:00 19,6 16,2 12 7 18 10 ENE 1010,4 - 0,0
18.10.2017 11:00:00 19,5 16,3 8 5 27 15 WNW 1010,7 12 0,0
18.10.2017 10:00:00 20,0 17,2 12 6 21 11 W 1011,3 - 0,0
18.10.2017 09:00:00 19,5 13,2 7 4 14 8 S 1011,2 - 0,0
18.10.2017 08:00:00 19,8 12,8 8 4 25 14 S 1011,2 15 0,0
18.10.2017 07:00:00 19,7 12,5 14 7 24 13 S 1011,5 - 0,0
18.10.2017 06:00:00 20,1 12,3 10 5 20 11 S 1012,2 - 0,0
18.10.2017 05:00:00 19,5 12,7 5 3 17 9 SW 1012,5 15 0,0
18.10.2017 04:00:00 19,8 13,5 8 5 27 14 S 1012,9 - 0,0
18.10.2017 03:00:00 18,7 17,9 8 4 18 10 W 1013,2 - 0,0
18.10.2017 02:00:00 19,0 18,3 4 2 13 7 N 1013,6 - 0,0
18.10.2017 01:00:00 19,1 18,4 9 5 19 11 WNW 1014,1 - 0,0
18.10.2017 00:00:00 19,1 18,4 14 7 18 10 W 1014,6 - 0,0
17.10.2017 23:00:00 19,3 18,5 11 6 23 13 WNW 1014,8 12 0,0
17.10.2017 22:00:00 19,6 18,6 21 11 31 17 W 1014,8 - 0,0
17.10.2017 21:00:00 21,1 16,7 14 8 20 11 W 1014,6 - 0,2
17.10.2017 20:00:00 24,3 8,7 6 4 29 16 SSW 1014,3 - 0,0
17.10.2017 19:00:00 25,6 8,6 19 11 41 22 S 1014,0 - 0,0
17.10.2017 18:00:00 25,3 9,2 5 3 26 14 SE 1013,8 - 0,0
17.10.2017 17:00:00 26,2 9,9 18 10 44 24 SE 1014,0 20 0,0
17.10.2017 16:00:00 26,7 10,4 21 11 55 30 SSE 1014,6 - 0,0
17.10.2017 15:00:00 25,0 11,2 27 14 63 34 S 1015,1 - 0,0
17.10.2017 14:00:00 26,3 10,8 32 18 77 41 S 1015,8 20 0,0
17.10.2017 13:00:00 25,0 11,5 41 22 80 43 S 1016,0 - 0,0
17.10.2017 12:00:00 23,8 11,5 44 24 77 42 S 1016,6 - 0,0
17.10.2017 11:00:00 22,8 10,9 50 27 - - S 1016,9 20 0,0
17.10.2017 10:00:00 22,4 10,8 42 23 77 42 S 1017,8 - 0,0
17.10.2017 09:00:00 21,5 10,0 12 7 37 20 SSE 1017,7 - 0,0
17.10.2017 08:00:00 20,7 10,5 6 3 51 28 S 1017,9 20 0,0
17.10.2017 07:00:00 21,0 10,5 15 8 42 23 S 1018,0 - 0,0
17.10.2017 06:00:00 18,8 11,1 12 6 32 17 S 1018,4 - 0,0
17.10.2017 05:00:00 15,7 14,9 6 4 23 12 E 1018,9 20 0,0
17.10.2017 04:00:00 16,0 15,4 12 6 18 10 NE 1019,9 - 0,0
17.10.2017 03:00:00 16,8 16,2 13 7 17 9 E 1021,0 - 0,0
17.10.2017 02:00:00 16,3 15,2 5 3 13 7 ESE 1021,8 - 0,0
17.10.2017 01:00:00 16,8 15,5 7 4 10 6 SE 1022,6 - 0,0
17.10.2017 00:00:00 16,6 15,6 3 2 9 5 SSE 1023,2 - 0,0
16.10.2017 23:00:00 16,6 15,5 8 4 10 5 SSW 1023,6 20 0,0
16.10.2017 22:00:00 17,5 15,8 8 4 11 6 SSW 1023,6 - 0,0
16.10.2017 21:00:00 18,1 16,1 10 5 19 11 SW 1024,0 - 0,0
16.10.2017 20:00:00 19,2 16,8 16 9 24 13 WSW 1023,8 12 0,0
16.10.2017 19:00:00 19,9 16,3 13 7 26 14 WSW 1023,4 - 0,0
16.10.2017 18:00:00 21,5 17,1 22 12 34 18 W 1023,0 - 0,0
16.10.2017 17:00:00 22,0 17,8 26 14 41 22 W 1023,0 - 0,0
16.10.2017 16:00:00 21,9 18,3 33 18 45 24 W 1022,9 - 0,0
16.10.2017 15:00:00 29,9 13,6 15 8 47 25 S 1021,7 - 0,0
16.10.2017 14:00:00 29,1 12,9 22 12 45 25 SSE 1021,2 - 0,0
16.10.2017 13:00:00 28,7 12,2 18 10 36 19 SSE 1021,7 - 0,0
16.10.2017 12:00:00 27,3 13,6 16 8 63 34 WSW 1021,5 - 0,0
16.10.2017 11:00:00 25,7 12,2 36 20 67 36 S 1020,3 - 0,0
16.10.2017 10:00:00 24,5 12,4 34 18 53 29 S 1020,4 - 0,0
16.10.2017 09:00:00 23,4 12,7 30 16 74 40 SSW 1019,8 - 0,0
16.10.2017 08:00:00 23,4 12,7 21 11 63 34 S 1019,3 20 0,0
16.10.2017 07:00:00 23,5 12,8 11 6 34 18 S 1019,4 - 0,0
16.10.2017 06:00:00 23,6 13,2 8 4 72 39 S 1019,2 - 0,0
16.10.2017 05:00:00 24,6 13,2 42 23 86 46 S 1018,3 - 0,0
16.10.2017 04:00:00 25,0 13,2 42 23 81 44 S 1018,5 - 0,0
16.10.2017 03:00:00 25,4 13,3 50 27 84 45 S 1019,0 - 0,0
16.10.2017 02:00:00 25,7 13,2 45 24 95 51 S 1019,3 - 0,0
16.10.2017 01:00:00 26,0 12,8 54 29 91 49 S 1019,8 - 0,0
16.10.2017 00:00:00 26,1 12,9 56 31 84 45 S 1020,0 - 0,0
15.10.2017 23:00:00 25,8 13,3 53 29 76 41 S 1020,5 - 0,0
15.10.2017 22:00:00 25,2 14,0 25 13 53 28 S 1020,2 - 0,0
15.10.2017 21:00:00 25,3 14,1 - - 49 26 - 1020,4 - 0,0
15.10.2017 20:00:00 25,5 14,3 22 12 37 20 S 1020,3 - 0,0
15.10.2017 19:00:00 26,4 14,5 21 12 40 22 S 1020,1 - 0,0

tt = Température de l'air
td = dewpoint
ff = Vitesse du vent
fx = gusts
dd = Direction du vent
ppp = reduced air pressure
vv = visibility
rr = Quantités de précipitations

stations d'obs. à proximité